TimeCDT,TemperatureF,Dew PointF,Humidity,Sea Level PressureIn,VisibilityMPH,Wind Direction,Wind SpeedMPH,Gust SpeedMPH,PrecipitationIn,Events,Conditions,WindDirDegrees,DateUTC
12:15 AM,67.1,57.0,70,29.93,10.0,NNE,13.8,18.4,N/A,,Overcast,20,2013-07-01 05:15:00
12:35 AM,67.3,53.1,60,29.93,10.0,NNE,10.4,16.1,N/A,,Mostly Cloudy,20,2013-07-01 05:35:00
12:55 AM,66.6,53.6,63,29.93,10.0,North,8.1,-,N/A,,Mostly Cloudy,10,2013-07-01 05:55:00
1:15 AM,66.0,54.5,66,29.93,10.0,NNE,9.2,-,N/A,,Mostly Cloudy,20,2013-07-01 06:15:00
1:35 AM,65.3,55.2,70,29.92,10.0,North,8.1,-,N/A,,Mostly Cloudy,360,2013-07-01 06:35:00
1:55 AM,64.6,55.9,74,29.92,10.0,North,10.4,-,N/A,,Mostly Cloudy,360,2013-07-01 06:55:00
2:15 AM,64.4,51.6,63,29.92,10.0,North,12.7,-,N/A,,Overcast,360,2013-07-01 07:15:00
2:35 AM,64.0,50.2,61,29.92,10.0,North,9.2,-,N/A,,Overcast,10,2013-07-01 07:35:00
2:55 AM,63.5,50.9,63,29.92,10.0,North,9.2,-,N/A,,Overcast,360,2013-07-01 07:55:00
3:15 AM,63.0,50.5,64,29.92,10.0,North,10.4,-,N/A,,Overcast,360,2013-07-01 08:15:00
3:35 AM,63.0,49.1,61,29.93,10.0,North,9.2,-,N/A,,Overcast,10,2013-07-01 08:35:00
3:55 AM,62.6,49.8,63,29.93,10.0,NNE,9.2,-,N/A,,Overcast,20,2013-07-01 08:55:00
4:15 AM,59.9,52.3,76,29.93,10.0,North,8.1,-,N/A,Rain,Light Rain,10,2013-07-01 09:15:00
4:35 AM,60.4,52.5,75,29.93,10.0,North,8.1,-,N/A,,Overcast,360,2013-07-01 09:35:00
4:55 AM,61.0,52.3,73,29.93,10.0,North,9.2,-,N/A,,Overcast,360,2013-07-01 09:55:00
5:15 AM,61.0,52.9,75,29.93,10.0,North,10.4,-,N/A,Rain,Light Rain,360,2013-07-01 10:15:00
5:35 AM,60.1,53.2,78,29.93,10.0,North,8.1,-,N/A,,Overcast,360,2013-07-01 10:35:00
5:55 AM,60.4,53.1,77,29.94,10.0,North,8.1,-,N/A,,Overcast,360,2013-07-01 10:55:00
6:15 AM,60.4,53.6,78,29.94,10.0,North,8.1,-,N/A,,Mostly Cloudy,360,2013-07-01 11:15:00
6:35 AM,60.8,53.8,78,29.95,10.0,North,8.1,-,N/A,,Scattered Clouds,360,2013-07-01 11:35:00
6:55 AM,61.0,54.3,79,29.95,10.0,North,8.1,-,N/A,,Scattered Clouds,350,2013-07-01 11:55:00
7:15 AM,61.3,54.9,79,29.95,10.0,North,6.9,-,N/A,,Scattered Clouds,350,2013-07-01 12:15:00
7:35 AM,62.6,55.4,77,29.95,10.0,North,8.1,-,N/A,,Scattered Clouds,360,2013-07-01 12:35:00
7:55 AM,63.5,55.6,75,29.96,10.0,North,9.2,-,N/A,,Scattered Clouds,360,2013-07-01 12:55:00
8:15 AM,63.5,55.9,76,29.96,10.0,North,10.4,-,N/A,,Mostly Cloudy,360,2013-07-01 13:15:00
8:35 AM,63.9,55.9,75,29.97,10.0,North,8.1,-,N/A,,Scattered Clouds,360,2013-07-01 13:35:00
8:55 AM,64.4,56.3,75,29.97,10.0,North,12.7,-,N/A,,Clear,360,2013-07-01 13:55:00
9:15 AM,65.5,56.8,74,29.96,10.0,North,11.5,-,N/A,,Clear,360,2013-07-01 14:15:00
9:35 AM,66.6,57.2,72,29.96,10.0,North,11.5,-,N/A,,Clear,360,2013-07-01 14:35:00
9:55 AM,69.8,60.1,71,29.96,10.0,North,11.5,-,N/A,,Clear,360,2013-07-01 14:55:00
10:15 AM,70.0,57.4,64,29.96,10.0,North,15.0,19.6,N/A,,Clear,360,2013-07-01 15:15:00
10:35 AM,71.8,57.0,60,29.96,10.0,North,13.8,18.4,N/A,,Clear,10,2013-07-01 15:35:00
10:55 AM,70.9,55.9,59,29.97,10.0,North,12.7,-,N/A,,Clear,10,2013-07-01 15:55:00
11:15 AM,70.9,56.7,61,29.96,10.0,North,15.0,19.6,N/A,,Clear,10,2013-07-01 16:15:00
11:35 AM,72.3,56.5,57,29.97,10.0,NNE,16.1,19.6,N/A,,Clear,20,2013-07-01 16:35:00
11:55 AM,72.7,56.3,56,29.97,10.0,North,15.0,-,N/A,,Clear,10,2013-07-01 16:55:00
12:15 PM,73.6,54.9,52,29.96,10.0,North,13.8,20.7,N/A,,Scattered Clouds,10,2013-07-01 17:15:00
12:35 PM,74.3,56.3,53,29.96,10.0,North,15.0,-,N/A,,Scattered Clouds,10,2013-07-01 17:35:00
12:55 PM,74.7,55.9,52,29.96,10.0,NNE,15.0,21.9,N/A,,Scattered Clouds,20,2013-07-01 17:55:00
1:15 PM,74.3,56.8,54,29.95,10.0,North,13.8,19.6,N/A,,Mostly Cloudy,10,2013-07-01 18:15:00
1:35 PM,73.9,57.4,56,29.95,10.0,North,16.1,23.0,N/A,,Overcast,10,2013-07-01 18:35:00
1:55 PM,74.5,58.6,58,29.95,10.0,NNE,12.7,18.4,N/A,,Mostly Cloudy,20,2013-07-01 18:55:00
2:15 PM,74.3,59.0,59,29.95,10.0,NNE,12.7,21.9,N/A,,Mostly Cloudy,30,2013-07-01 19:15:00
2:35 PM,74.3,58.6,58,29.95,10.0,NNE,15.0,20.7,N/A,,Mostly Cloudy,30,2013-07-01 19:35:00
2:55 PM,73.6,58.6,59,29.95,10.0,NNE,13.8,-,N/A,,Mostly Cloudy,20,2013-07-01 19:55:00
3:15 PM,73.6,58.5,59,29.95,10.0,North,11.5,19.6,N/A,,Mostly Cloudy,10,2013-07-01 20:15:00
3:35 PM,71.4,59.7,66,29.96,10.0,NNE,15.0,23.0,N/A,Rain,Rain,20,2013-07-01 20:35:00
3:55 PM,68.2,61.3,79,29.95,10.0,North,8.1,-,N/A,,Mostly Cloudy,10,2013-07-01 20:55:00
4:15 PM,70.0,61.0,73,29.95,10.0,NNE,9.2,-,N/A,,Mostly Cloudy,20,2013-07-01 21:15:00
4:35 PM,72.3,59.5,64,29.94,10.0,North,8.1,-,N/A,,Mostly Cloudy,10,2013-07-01 21:35:00
4:55 PM,73.4,57.9,58,29.95,10.0,NNE,11.5,17.3,N/A,,Mostly Cloudy,20,2013-07-01 21:55:00
5:15 PM,73.4,55.0,52,29.95,10.0,North,15.0,19.6,N/A,,Scattered Clouds,10,2013-07-01 22:15:00
5:35 PM,73.4,54.5,51,29.95,10.0,NNE,12.7,18.4,N/A,,Scattered Clouds,20,2013-07-01 22:35:00
5:55 PM,73.4,54.3,51,29.94,10.0,North,13.8,18.4,N/A,,Clear,10,2013-07-01 22:55:00
6:15 PM,73.6,53.4,49,29.95,10.0,North,13.8,20.7,N/A,,Clear,10,2013-07-01 23:15:00
6:35 PM,73.4,53.6,50,29.95,10.0,North,13.8,18.4,N/A,,Clear,10,2013-07-01 23:35:00
6:55 PM,72.9,54.0,51,29.95,10.0,North,9.2,-,N/A,,Clear,10,2013-07-01 23:55:00
7:35 PM,71.2,54.3,55,29.96,10.0,North,9.2,-,N/A,,Scattered Clouds,360,2013-07-02 00:35:00
7:55 PM,71.1,53.8,54,29.96,10.0,North,11.5,-,N/A,,Scattered Clouds,360,2013-07-02 00:55:00
8:15 PM,70.2,54.5,57,29.97,10.0,North,9.2,-,N/A,,Scattered Clouds,360,2013-07-02 01:15:00
8:35 PM,70.2,55.4,59,29.97,10.0,North,9.2,-,N/A,,Mostly Cloudy,10,2013-07-02 01:35:00
8:55 PM,70.5,54.1,56,29.98,10.0,NNE,11.5,21.9,N/A,,Mostly Cloudy,20,2013-07-02 01:55:00
9:15 PM,69.8,54.1,57,29.98,10.0,North,12.7,19.6,N/A,,Mostly Cloudy,10,2013-07-02 02:15:00
9:35 PM,69.6,54.5,59,29.98,10.0,NNE,10.4,-,N/A,,Mostly Cloudy,20,2013-07-02 02:35:00
9:55 PM,69.1,54.9,60,29.99,10.0,NNE,13.8,17.3,N/A,,Mostly Cloudy,30,2013-07-02 02:55:00
10:15 PM,68.4,56.1,65,29.99,10.0,NNE,8.1,-,N/A,,Mostly Cloudy,30,2013-07-02 03:15:00
10:35 PM,68.4,57.6,68,29.99,10.0,NE,11.5,17.3,N/A,,Mostly Cloudy,50,2013-07-02 03:35:00
10:55 PM,66.2,60.4,82,29.99,10.0,NE,9.2,-,N/A,,Mostly Cloudy,50,2013-07-02 03:55:00
11:15 PM,65.5,61.3,86,29.99,10.0,NE,12.7,19.6,N/A,,Overcast,50,2013-07-02 04:15:00
11:35 PM,65.3,61.7,88,29.99,10.0,NE,11.5,-,N/A,,Mostly Cloudy,40,2013-07-02 04:35:00
11:55 PM,65.7,61.7,87,29.99,10.0,NE,11.5,-,N/A,,Overcast,40,2013-07-02 04:55:00